Location: C�mpuri de-Sus
(45.9500°N, 22.5500°E)
Time: 11:27:21
(UTC+00:00)

Cosmos 2278 Rocket - Pass Details

Date: 06 June 2022
Orbit: 840 x 846 km, 71.0° (Epoch: 01 July)

Event Time Altitude Azimuth Distance (km) Brightness Sun altitude
Rises 20:58:58 0° 331° (NNW) 3,416 7.0 -18.4°
Reaches altitude 10° 21:01:26 10° 329° (NNW) 2,477 5.9 -18.5°
Maximum altitude 21:07:04 68° 248° (WSW) 908 2.3 -18.9°
Enters shadow 21:09:34 34° 175° (S) 1,366 2.8 -19.0°
